TimeEDT,TemperatureF,Dew PointF,Humidity,Sea Level PressureIn,VisibilityMPH,Wind Direction,Wind SpeedMPH,Gust SpeedMPH,PrecipitationIn,Events,Conditions,WindDirDegrees,DateUTC
12:54 AM,66.0,63.0,90,30.12,10.0,Calm,Calm,-,N/A,,Clear,0,2009-08-27 04:54:00
1:54 AM,64.0,62.1,93,30.12,7.0,Calm,Calm,-,N/A,,Clear,0,2009-08-27 05:54:00
2:54 AM,64.0,62.1,93,30.10,8.0,Calm,Calm,-,N/A,,Clear,0,2009-08-27 06:54:00
3:54 AM,63.0,61.0,93,30.10,8.0,Calm,Calm,-,N/A,,Clear,0,2009-08-27 07:54:00
4:54 AM,61.0,61.0,100,30.10,6.0,Calm,Calm,-,N/A,,Clear,0,2009-08-27 08:54:00
5:54 AM,62.1,61.0,96,30.10,8.0,Calm,Calm,-,N/A,,Clear,0,2009-08-27 09:54:00
6:54 AM,61.0,60.1,97,30.12,7.0,Calm,Calm,-,N/A,,Clear,0,2009-08-27 10:54:00
7:54 AM,63.0,61.0,93,30.12,6.0,NNW,4.6,-,N/A,,Clear,330,2009-08-27 11:54:00
8:54 AM,66.9,62.1,84,30.13,9.0,North,3.5,-,N/A,,Clear,350,2009-08-27 12:54:00
9:54 AM,70.0,63.0,78,30.13,10.0,NNW,4.6,-,N/A,,Clear,330,2009-08-27 13:54:00
10:54 AM,75.0,64.0,69,30.13,10.0,NNW,5.8,-,N/A,,Clear,330,2009-08-27 14:54:00
11:54 AM,80.1,63.0,56,30.11,10.0,NNW,3.5,-,N/A,,Clear,330,2009-08-27 15:54:00
12:54 PM,82.0,59.0,45,30.08,10.0,SW,3.5,-,N/A,,Clear,230,2009-08-27 16:54:00
1:54 PM,82.0,59.0,45,30.07,10.0,Calm,Calm,-,N/A,,Overcast,0,2009-08-27 17:54:00
2:54 PM,82.4,64.4,54,30.14,10.0,SSW,8.1,-,N/A,,Clear,200,2009-08-27 18:54:00
3:54 PM,79.0,64.9,62,30.05,10.0,SW,8.1,-,N/A,,Scattered Clouds,220,2009-08-27 19:54:00
4:54 PM,71.1,64.9,81,30.08,10.0,SW,5.8,-,0.02,Rain,Light Rain,230,2009-08-27 20:54:00
5:06 PM,69.8,64.4,83,30.14,5.0,Calm,Calm,-,0.01,Rain,Light Rain,0,2009-08-27 21:06:00
5:34 PM,71.6,66.2,83,30.15,10.0,Calm,Calm,-,0.02,,Scattered Clouds,0,2009-08-27 21:34:00
5:54 PM,71.1,66.9,87,30.09,10.0,East,3.5,-,0.02,,Partly Cloudy,90,2009-08-27 21:54:00
6:54 PM,70.0,66.9,90,30.10,10.0,Calm,Calm,-,0.00,,Mostly Cloudy,0,2009-08-27 22:54:00
7:54 PM,70.0,66.0,87,30.09,10.0,NNW,6.9,-,N/A,,Clear,330,2009-08-27 23:54:00
8:54 PM,68.0,66.9,96,30.11,9.0,North,5.8,-,0.02,Rain,Light Rain,350,2009-08-28 00:54:00
9:21 PM,68.0,66.2,94,30.18,8.0,Calm,Calm,-,N/A,,Mostly Cloudy,0,2009-08-28 01:21:00
9:54 PM,66.9,66.0,97,30.11,9.0,Calm,Calm,-,N/A,,Scattered Clouds,0,2009-08-28 01:54:00
10:54 PM,66.9,66.0,97,30.10,8.0,Calm,Calm,-,N/A,,Clear,0,2009-08-28 02:54:00
11:54 PM,66.9,64.9,93,30.07,7.0,Calm,Calm,-,N/A,,Clear,0,2009-08-28 03:54:00